Flag for Germany Weather past 2 weeks in Stade, Lower Saxony, Germany

Now
52 °F

Drizzle. Fog.


Feels Like: 47 °F
Forecast: 43 / 52 °F
Wind: 16 mph from Southwest

Location: Hamburg-Finkenwerder

Current Time: Dec 18, 2014 at 6:10:28 PM

Latest Report: Dec 18, 2014 at 5:20 PM


Visibility: 3 mi

Pressure: 29.59 "Hg

Humidity: 100%

Dew point: 52 °F

Location of StadeLocation

Historic Weather in Stade — Graph

°F

Stade temperature yesterday

Maximum temperature yesterday: 43 °F (at 7:50 PM)
Minimum temperature yesterday: 34 °F (at 5:50 AM)
Average temperature yesterday: 38 °F

Past Weeks' High & Low Weather Summary

 TemperatureHumidityPressure
High52 °F (Dec 18, 12:50 PM)100% (Dec 4, 2:20 PM)30.30 "Hg (Dec 4, 2:20 PM)
Low28 °F (Dec 3, 4:20 PM)75% (Dec 10, 5:20 AM)29.18 "Hg (Dec 12, 1:20 PM)
Average39 °F94%29.81 "Hg
* Reported Dec 3 4:20 PM — Dec 18 4:20 PM, Stade, Weather by CustomWeather, © 2014

Note: Actual official high and low records may vary slightly from our data, if they occured in-between our weather recording intervals... More about our weather records

Advertising

Stade weather history for previous 24 hours

 ConditionsComfort  
Time TempWeatherWind HumidityBarometerVisibility
4:20 PM
Dec 18
52 °FPassing clouds.16 mph100%29.62 "Hg6 mi
3:50 PM52 °FPartly sunny.14 mph100%29.62 "Hg6 mi
3:20 PM52 °FPartly sunny.13 mph100%29.62 "HgN/A
2:50 PM52 °FPartly sunny.12 mph100%29.62 "Hg4 mi
2:20 PM52 °FDrizzle. Partly sunny.13 mph100%29.65 "Hg5 mi
1:50 PM52 °FBroken clouds.12 mph100%29.65 "Hg4 mi
1:20 PM52 °FBroken clouds.14 mph100%29.65 "Hg4 mi
12:50 PM52 °FPartly sunny.12 mph100%29.68 "Hg4 mi
12:20 PM50 °FDrizzle. Fog.14 mph100%29.68 "Hg3 mi
11:50 AM50 °FDrizzle. Fog.13 mph100%29.68 "Hg2 mi
11:20 AM50 °FDrizzle. Fog.13 mph100%29.68 "Hg2 mi
10:50 AM50 °FDrizzle. Fog.10 mph100%29.68 "Hg1 mi
10:20 AM50 °FDrizzle. Fog.10 mph100%29.71 "Hg1 mi
9:50 AM50 °FDrizzle. Fog.10 mph100%29.71 "Hg1 mi
9:20 AM50 °FDrizzle. Fog.12 mph100%29.68 "Hg1 mi
8:50 AM48 °FDrizzle. Fog.12 mph100%29.71 "Hg1 mi
8:20 AM48 °FDrizzle. Fog.13 mph100%29.71 "Hg1 mi
7:50 AM48 °FDrizzle. Fog.10 mph100%29.68 "Hg2 mi
7:20 AM48 °FDrizzle. Fog.10 mph100%29.71 "Hg2 mi
6:50 AM48 °FDrizzle. Fog.10 mph100%29.68 "Hg2 mi
6:20 AM48 °FPassing clouds.10 mph100%29.71 "Hg4 mi
5:50 AM48 °FPassing clouds.10 mph100%29.68 "Hg5 mi
5:20 AM48 °FPassing clouds.9 mph100%29.68 "Hg6 mi
7:50 PM
Dec 17
43 °FDrizzle. Fog.6 mph100%29.53 "Hg2 mi
7:20 PM41 °FDrizzle. Fog.5 mph100%29.53 "Hg2 mi
6:50 PM41 °FFog.3 mph100%29.53 "Hg3 mi
6:20 PM39 °FFog.5 mph100%29.50 "Hg3 mi
Weather by CustomWeather, © 2014

See weather overviewHow to use our weather pages